QPF
0.02 0.02 0.02 0.02 0.03 0.04 0.03 0.04 0.06 0.10 0.12 0.17 0.16 0.11 0.07 0.05 0.05 0.04 0.04 0.03 0.03 0.03 0.06 0.08 0.07 0.03 0.03 0.04 0.03 0.03 0.03 0.03 0.03 0.02 0.02 0.02 0.02 0.03 0.02 0.03 0.03 0.05 0.06
0.02 0.02 0.02 0.03 0.04 0.05 0.04 0.05 0.06 0.08 0.11 0.14 0.13 0.09 0.06 0.04 0.04 0.05 0.04 0.03 0.04 0.04 0.05 0.07 0.08 0.05 0.04 0.03 0.03 0.02 0.02 0.02 0.02 0.02 0.03 0.02 0.02 0.03 0.03 0.02 0.03 0.04 0.05
0.02 0.03 0.03 0.03 0.04 0.05 0.06 0.06 0.06 0.05 0.07 0.07 0.07 0.06 0.06 0.05 0.05 0.06 0.04 0.03 0.04 0.05 0.05 0.07 0.08 0.07 0.04 0.03 0.02 0.02 0.01 0.02 0.03 0.03 0.03 0.02 0.02 0.02 0.02 0.02 0.02 0.04 0.04
0.02 0.03 0.03 0.04 0.03 0.03 0.04 0.06 0.06 0.05 0.05 0.05 0.05 0.04 0.05 0.06 0.08 0.07 0.05 0.04 0.04 0.05 0.05 0.05 0.05 0.05 0.04 0.02 0.02 0.01 0.01 0.02 0.03 0.03 0.03 0.02 0.02 0.02 0.02 0.03 0.03 0.04 0.04
0.01 0.02 0.02 0.02 0.02 0.02 0.03 0.07 0.08 0.05 0.04 0.03 0.03 0.04 0.04 0.05 0.07 0.05 0.05 0.05 0.05 0.05 0.05 0.04 0.05 0.06 0.05 0.04 0.03 0.02 0.02 0.01 0.02 0.04 0.04 0.03 0.02 0.02 0.01 0.02 0.03 0.05 0.04
0.01 0.01 0.01 0.01 0.02 0.02 0.05 0.08 0.09 0.08 0.06 0.05 0.05 0.05 0.04 0.05 0.05 0.05 0.05 0.04 0.04 0.05 0.06 0.05 0.05 0.07 0.07 0.06 0.05 0.04 0.03 0.02 0.02 0.03 0.04 0.04 0.03 0.02 0.03 0.02 0.03 0.04 0.04
0.01 0.01 0.01 0.01 0.03 0.04 0.05 0.07 0.09 0.11 0.08 0.07 0.07 0.05 0.05 0.06 0.04 0.04 0.03 0.03 0.03 0.04 0.05 0.06 0.06 0.06 0.08 0.09 0.08 0.06 0.04 0.03 0.03 0.03 0.03 0.04 0.04 0.03 0.04 0.03 0.03 0.03 0.04
0.01 0.01 0.02 0.02 0.03 0.04 0.05 0.05 0.06 0.09 0.07 0.06 0.05 0.05 0.07 0.07 0.06 0.06 0.05 0.05 0.05 0.04 0.05 0.05 0.05 0.04 0.04 0.06 0.08 0.08 0.07 0.06 0.05 0.05 0.05 0.05 0.05 0.04 0.03 0.03 0.03 0.03 0.04
0.01 0.01 0.02 0.02 0.03 0.04 0.04 0.04 0.05 0.07 0.08 0.06 0.05 0.05 0.05 0.07 0.08 0.08 0.07 0.06 0.05 0.06 0.07 0.06 0.05 0.03 0.02 0.03 0.06 0.08 0.08 0.07 0.06 0.06 0.06 0.06 0.04 0.05 0.04 0.04 0.04 0.04 0.03
0.01 0.01 0.02 0.03 0.03 0.04 0.04 0.05 0.06 0.07 0.08 0.07 0.06 0.05 0.05 0.05 0.05 0.05 0.04 0.04 0.03 0.04 0.04 0.04 0.03 0.02 0.01 0.01 0.03 0.07 0.07 0.06 0.05 0.06 0.06 0.05 0.03 0.03 0.05 0.05 0.05 0.04 0.03
0.02 0.02 0.04 0.05 0.05 0.04 0.06 0.06 0.06 0.08 0.11 0.13 0.12 0.09 0.07 0.05 0.04 0.04 0.04 0.04 0.04 0.03 0.03 0.03 0.02 0.02 0.02 0.02 0.02 0.04 0.05 0.04 0.04 0.04 0.04 0.03 0.01 0.02 0.04 0.05 0.05 0.04 0.03
0.03 0.03 0.04 0.04 0.04 0.05 0.11 0.11 0.08 0.08 0.09 0.11 0.13 0.12 0.09 0.05 0.04 0.03 0.02 0.03 0.03 0.04 0.04 0.04 0.03 0.02 0.02 0.01 0.02 0.03 0.03 0.03 0.03 0.03 0.03 0.02 0.01 0.02 0.03 0.03 0.03 0.03 0.03
0.03 0.04 0.04 0.03 0.02 0.04 0.08 0.09 0.07 0.06 0.05 0.05 0.07 0.08 0.05 0.03 0.02 0.02 0.01 0.01 0.01 0.02 0.02 0.02 0.02 0.02 0.03 0.02 0.02 0.03 0.03 0.03 0.04 0.04 0.02 0.02 0.02 0.01 0.02 0.02 0.02 0.03 0.03
0.03 0.04 0.05 0.04 0.03 0.03 0.04 0.06 0.05 0.04 0.04 0.04 0.05 0.04 0.03 0.02 0.01 0.01 0.01 0.01 0.01 0.01 0.01 0.01 0.01 0.02 0.03 0.04 0.03 0.02 0.03 0.04 0.05 0.05 0.04 0.03 0.02 0.02 0.02 0.02 0.02 0.03 0.03
0.03 0.03 0.04 0.05 0.05 0.04 0.04 0.05 0.04 0.04 0.05 0.05 0.04 0.03 0.02 0.02 0.02 0.02 0.02 0.02 0.01 0.01 0.01 0.01 0.01 0.02 0.03 0.03 0.03 0.03 0.03 0.04 0.06 0.05 0.05 0.05 0.03 0.03 0.03 0.02 0.03 0.04 0.04
0.03 0.03 0.03 0.03 0.04 0.05 0.04 0.03 0.03 0.03 0.04 0.03 0.03 0.03 0.03 0.03 0.02 0.02 0.02 0.02 0.02 0.02 0.01 0.01 0.02 0.02 0.02 0.03 0.03 0.02 0.03 0.04 0.06 0.06 0.05 0.05 0.05 0.05 0.05 0.05 0.05 0.04 0.04
0.03 0.03 0.03 0.04 0.04 0.05 0.04 0.03 0.03 0.03 0.03 0.02 0.03 0.03 0.01 0.01 0.01 0.01 0.02 0.02 0.02 0.02 0.02 0.02 0.02 0.02 0.03 0.04 0.06 0.07 0.07 0.06 0.06 0.06 0.07 0.07 0.07 0.08 0.05 0.05 0.05 0.04 0.05
0.03 0.03 0.03 0.04 0.05 0.05 0.05 0.04 0.03 0.03 0.02 0.02 0.02 0.02 0.01 0.01 0.02 0.02 0.01 0.02 0.02 0.01 0.02 0.02 0.03 0.05 0.07 0.08 0.10 0.12 0.13 0.11 0.08 0.06 0.06 0.06 0.06 0.05 0.04 0.04 0.04 0.03 0.02
0.04 0.03 0.03 0.04 0.04 0.05 0.05 0.03 0.02 0.01 0.01 0.01 0.01 0.00 0.01 0.01 0.01 0.02 0.02 0.01 0.01 0.01 0.02 0.03 0.04 0.06 0.06 0.05 0.05 0.05 0.05 0.07 0.08 0.08 0.06 0.05 0.04 0.05 0.05 0.05 0.05 0.04 0.03
0.03 0.03 0.03 0.04 0.03 0.04 0.04 0.03 0.02 0.01 0.01 0.01 0.01 0.01 0.01 0.00 0.01 0.03 0.04 0.03 0.02 0.02 0.02 0.03 0.03 0.03 0.03 0.04 0.05 0.04 0.03 0.03 0.03 0.04 0.04 0.03 0.03 0.04 0.03 0.03 0.03 0.04 0.03
0.02 0.02 0.02 0.02 0.02 0.03 0.04 0.03 0.01 0.01 0.01 0.01 0.01 0.00 0.00 0.00 0.00 0.01 0.01 0.03 0.04 0.04 0.03 0.04 0.03 0.03 0.04 0.04 0.05 0.04 0.03 0.02 0.02 0.02 0.02 0.02 0.02 0.02 0.02 0.02 0.01 0.01 0.02
0.02 0.03 0.02 0.01 0.02 0.04 0.05 0.03 0.01 0.01 0.01 0.01 0.00 0.00 0.00 0.00 0.00 0.01 0.01 0.02 0.06 0.07 0.03 0.02 0.01 0.02 0.03 0.05 0.05 0.04 0.04 0.03 0.02 0.02 0.02 0.02 0.02 0.02 0.02 0.02 0.01 0.01 0.01
0.03 0.03 0.02 0.01 0.01 0.03 0.03 0.02 0.01 0.01 0.01 0.01 0.00 0.00 0.00 0.00 0.00 0.00 0.00 0.01 0.02 0.04 0.02 0.01 0.01 0.01 0.01 0.02 0.04 0.05 0.04 0.04 0.03 0.03 0.04 0.03 0.03 0.04 0.04 0.03 0.03 0.02 0.01
0.02 0.02 0.02 0.01 0.01 0.02 0.03 0.02 0.02 0.03 0.02 0.01 0.01 0.00 0.00 0.00 0.00 0.00 0.00 0.01 0.01 0.01 0.01 0.01 0.02 0.02 0.01 0.01 0.01 0.02 0.04 0.04 0.03 0.03 0.04 0.04 0.04 0.04 0.05 0.05 0.04 0.03 0.02
0.02 0.01 0.02 0.02 0.01 0.01 0.02 0.02 0.02 0.02 0.03 0.02 0.01 0.01 0.00 0.00 0.00 0.00 0.01 0.02 0.01 0.01 0.02 0.03 0.02 0.02 0.01 0.01 0.01 0.01 0.02 0.02 0.02 0.03 0.03 0.03 0.03 0.02 0.03 0.04 0.04 0.04 0.03
0.02 0.01 0.01 0.01 0.02 0.01 0.01 0.01 0.01 0.02 0.03 0.03 0.03 0.02 0.01 0.01 0.00 0.01 0.01 0.01 0.01 0.01 0.02 0.04 0.02 0.01 0.01 0.02 0.02 0.01 0.01 0.02 0.04 0.04 0.03 0.02 0.02 0.02 0.02 0.02 0.02 0.03 0.04
MSLP
1009.69 1009.84 1009.92 1009.94 1009.91 1009.86 1009.81 1009.79 1009.80 1009.84 1009.90 1009.97 1010.04 1010.10 1010.18 1010.30 1010.49 1010.80 1011.24 1011.81 1012.52 1013.31 1014.14 1014.98 1015.76 1016.46 1017.06 1017.55 1017.94 1018.26 1018.52 1018.73 1018.89 1019.02 1019.10 1019.12 1019.09 1018.99 1018.85 1018.69 1018.52 1018.37 1018.26
1009.74 1009.99 1010.16 1010.24 1010.24 1010.18 1010.09 1010.01 1009.96 1009.93 1009.95 1009.98 1010.03 1010.08 1010.15 1010.27 1010.46 1010.76 1011.18 1011.74 1012.42 1013.20 1014.02 1014.85 1015.62 1016.31 1016.90 1017.38 1017.77 1018.09 1018.36 1018.60 1018.81 1019.00 1019.15 1019.24 1019.26 1019.20 1019.07 1018.89 1018.67 1018.45 1018.25
1009.59 1009.96 1010.26 1010.45 1010.52 1010.49 1010.40 1010.29 1010.19 1010.12 1010.08 1010.08 1010.10 1010.15 1010.22 1010.34 1010.53 1010.82 1011.24 1011.78 1012.44 1013.18 1013.97 1014.76 1015.50 1016.15 1016.69 1017.14 1017.51 1017.83 1018.11 1018.39 1018.66 1018.92 1019.14 1019.31 1019.40 1019.39 1019.29 1019.10 1018.85 1018.56 1018.27
1009.26 1009.78 1010.22 1010.55 1010.72 1010.77 1010.71 1010.60 1010.47 1010.36 1010.29 1010.26 1010.27 1010.31 1010.39 1010.52 1010.72 1011.02 1011.43 1011.95 1012.57 1013.28 1014.01 1014.74 1015.41 1015.99 1016.48 1016.89 1017.22 1017.52 1017.82 1018.12 1018.45 1018.77 1019.07 1019.32 1019.48 1019.53 1019.46 1019.27 1019.00 1018.66 1018.30
1008.81 1009.47 1010.07 1010.54 1010.84 1010.97 1010.97 1010.89 1010.76 1010.64 1010.56 1010.51 1010.52 1010.56 1010.66 1010.81 1011.03 1011.33 1011.73 1012.24 1012.83 1013.47 1014.14 1014.79 1015.38 1015.88 1016.30 1016.64 1016.93 1017.21 1017.50 1017.83 1018.19 1018.57 1018.93 1019.24 1019.46 1019.56 1019.52 1019.35 1019.07 1018.71 1018.30
1008.32 1009.10 1009.83 1010.43 1010.85 1011.09 1011.16 1011.12 1011.02 1010.91 1010.83 1010.80 1010.81 1010.88 1010.99 1011.17 1011.41 1011.73 1012.13 1012.61 1013.16 1013.74 1014.34 1014.90 1015.40 1015.82 1016.16 1016.43 1016.68 1016.92 1017.19 1017.52 1017.90 1018.30 1018.70 1019.05 1019.32 1019.46 1019.45 1019.30 1019.03 1018.66 1018.23
1007.85 1008.71 1009.55 1010.26 1010.78 1011.11 1011.26 1011.28 1011.22 1011.14 1011.09 1011.08 1011.12 1011.22 1011.37 1011.57 1011.84 1012.16 1012.56 1013.01 1013.52 1014.04 1014.57 1015.04 1015.46 1015.80 1016.06 1016.27 1016.46 1016.66 1016.91 1017.21 1017.58 1017.98 1018.39 1018.75 1019.03 1019.19 1019.21 1019.09 1018.84 1018.49 1018.06
1007.47 1008.37 1009.27 1010.05 1010.65 1011.04 1011.26 1011.34 1011.35 1011.33 1011.32 1011.35 1011.44 1011.57 1011.76 1011.99 1012.27 1012.59 1012.97 1013.39 1013.85 1014.32 1014.77 1015.17 1015.52 1015.79 1015.99 1016.14 1016.28 1016.44 1016.64 1016.90 1017.23 1017.60 1017.98 1018.33 1018.60 1018.77 1018.80 1018.71 1018.49 1018.18 1017.79
1007.21 1008.13 1009.04 1009.85 1010.48 1010.93 1011.20 1011.35 1011.42 1011.46 1011.52 1011.61 1011.74 1011.92 1012.13 1012.37 1012.65 1012.97 1013.32 1013.70 1014.10 1014.51 1014.90 1015.24 1015.53 1015.75 1015.90 1016.01 1016.11 1016.22 1016.37 1016.58 1016.85 1017.16 1017.49 1017.79 1018.04 1018.20 1018.24 1018.18 1018.00 1017.74 1017.41
1007.13 1008.02 1008.92 1009.71 1010.35 1010.81 1011.13 1011.33 1011.47 1011.58 1011.71 1011.86 1012.04 1012.25 1012.48 1012.72 1012.98 1013.26 1013.56 1013.89 1014.23 1014.58 1014.92 1015.22 1015.47 1015.65 1015.78 1015.86 1015.93 1015.99 1016.09 1016.24 1016.44 1016.68 1016.93 1017.18 1017.38 1017.52 1017.57 1017.53 1017.40 1017.19 1016.92
1007.26 1008.11 1008.94 1009.69 1010.30 1010.77 1011.11 1011.36 1011.56 1011.74 1011.93 1012.14 1012.36 1012.58 1012.80 1013.02 1013.24 1013.46 1013.69 1013.95 1014.24 1014.53 1014.82 1015.09 1015.32 1015.49 1015.61 1015.68 1015.72 1015.75 1015.80 1015.89 1016.01 1016.16 1016.34 1016.52 1016.67 1016.78 1016.82 1016.80 1016.71 1016.57 1016.37
1007.62 1008.40 1009.16 1009.84 1010.40 1010.85 1011.20 1011.48 1011.74 1011.98 1012.23 1012.48 1012.72 1012.94 1013.14 1013.30 1013.45 1013.59 1013.75 1013.93 1014.15 1014.39 1014.65 1014.90 1015.12 1015.29 1015.41 1015.48 1015.50 1015.50 1015.50 1015.52 1015.57 1015.65 1015.74 1015.85 1015.95 1016.03 1016.06 1016.06 1016.01 1015.91 1015.78
1008.19 1008.90 1009.58 1010.18 1010.68 1011.10 1011.45 1011.76 1012.05 1012.35 1012.64 1012.91 1013.16 1013.35 1013.50 1013.59 1013.66 1013.71 1013.78 1013.88 1014.03 1014.23 1014.45 1014.69 1014.91 1015.09 1015.21 1015.28 1015.29 1015.27 1015.22 1015.18 1015.16 1015.16 1015.19 1015.23 1015.28 1015.32 1015.34 1015.34 1015.32 1015.27 1015.19
1008.97 1009.61 1010.20 1010.71 1011.15 1011.53 1011.87 1012.20 1012.53 1012.85 1013.17 1013.45 1013.67 1013.83 1013.91 1013.93 1013.90 1013.86 1013.84 1013.87 1013.96 1014.12 1014.32 1014.54 1014.76 1014.95 1015.08 1015.14 1015.13 1015.08 1014.99 1014.90 1014.81 1014.74 1014.70 1014.69 1014.69 1014.70 1014.70 1014.70 1014.69 1014.66 1014.62
1009.90 1010.47 1010.98 1011.42 1011.80 1012.14 1012.47 1012.81 1013.15 1013.49 1013.81 1014.09 1014.28 1014.39 1014.41 1014.34 1014.23 1014.11 1014.01 1013.98 1014.02 1014.14 1014.32 1014.54 1014.75 1014.93 1015.05 1015.10 1015.07 1014.98 1014.85 1014.70 1014.55 1014.42 1014.33 1014.26 1014.22 1014.20 1014.18 1014.17 1014.15 1014.13 1014.11
1010.91 1011.42 1011.86 1012.24 1012.57 1012.89 1013.21 1013.55 1013.90 1014.25 1014.56 1014.81 1014.98 1015.03 1014.98 1014.85 1014.67 1014.49 1014.34 1014.26 1014.27 1014.36 1014.53 1014.73 1014.93 1015.09 1015.19 1015.21 1015.14 1015.00 1014.82 1014.61 1014.41 1014.23 1014.08 1013.97 1013.89 1013.83 1013.79 1013.75 1013.72 1013.68 1013.66
1011.93 1012.39 1012.77 1013.11 1013.41 1013.71 1014.03 1014.37 1014.73 1015.08 1015.38 1015.61 1015.74 1015.75 1015.65 1015.47 1015.25 1015.03 1014.85 1014.75 1014.74 1014.82 1014.96 1015.15 1015.32 1015.45 1015.50 1015.47 1015.35 1015.16 1014.91 1014.65 1014.39 1014.16 1013.97 1013.83 1013.71 1013.62 1013.55 1013.47 1013.40 1013.34 1013.28
1012.87 1013.29 1013.65 1013.96 1014.26 1014.56 1014.89 1015.24 1015.60 1015.94 1016.23 1016.44 1016.54 1016.52 1016.40 1016.20 1015.96 1015.72 1015.54 1015.44 1015.42 1015.49 1015.62 1015.77 1015.91 1015.98 1015.98 1015.89 1015.70 1015.45 1015.14 1014.82 1014.52 1014.24 1014.01 1013.83 1013.68 1013.56 1013.44 1013.33 1013.21 1013.09 1012.98
1013.67 1014.08 1014.44 1014.75 1015.06 1015.38 1015.72 1016.09 1016.46 1016.80 1017.08 1017.28 1017.36 1017.33 1017.20 1017.00 1016.77 1016.54 1016.37 1016.28 1016.27 1016.33 1016.44 1016.56 1016.64 1016.66 1016.59 1016.43 1016.17 1015.85 1015.48 1015.11 1014.77 1014.45 1014.19 1013.97 1013.79 1013.63 1013.47 1013.31 1013.13 1012.95 1012.78
1014.33 1014.75 1015.12 1015.46 1015.80 1016.15 1016.52 1016.91 1017.28 1017.62 1017.90 1018.08 1018.16 1018.13 1018.01 1017.83 1017.62 1017.43 1017.29 1017.22 1017.21 1017.27 1017.35 1017.43 1017.46 1017.42 1017.28 1017.04 1016.72 1016.34 1015.93 1015.51 1015.13 1014.78 1014.49 1014.24 1014.03 1013.83 1013.63 1013.41 1013.17 1012.92 1012.67
1014.87 1015.31 1015.71 1016.10 1016.48 1016.86 1017.26 1017.66 1018.04 1018.38 1018.64 1018.82 1018.90 1018.88 1018.78 1018.63 1018.47 1018.32 1018.21 1018.16 1018.17 1018.22 1018.28 1018.31 1018.29 1018.19 1017.99 1017.70 1017.33 1016.90 1016.45 1016.00 1015.59 1015.22 1014.91 1014.63 1014.38 1014.15 1013.90 1013.63 1013.33 1013.01 1012.68
1015.35 1015.82 1016.27 1016.69 1017.11 1017.52 1017.94 1018.34 1018.71 1019.04 1019.29 1019.47 1019.55 1019.55 1019.48 1019.37 1019.25 1019.14 1019.08 1019.05 1019.07 1019.11 1019.15 1019.15 1019.08 1018.94 1018.69 1018.36 1017.96 1017.51 1017.04 1016.58 1016.15 1015.77 1015.43 1015.13 1014.85 1014.58 1014.29 1013.97 1013.62 1013.24 1012.84
1015.84 1016.35 1016.83 1017.28 1017.72 1018.15 1018.56 1018.95 1019.29 1019.59 1019.83 1019.99 1020.07 1020.08 1020.05 1019.98 1019.91 1019.85 1019.82 1019.83 1019.86 1019.89 1019.92 1019.89 1019.80 1019.63 1019.36 1019.02 1018.61 1018.15 1017.69 1017.23 1016.80 1016.41 1016.05 1015.73 1015.43 1015.12 1014.79 1014.43 1014.04 1013.62 1013.17
1016.43 1016.95 1017.45 1017.91 1018.34 1018.75 1019.13 1019.48 1019.78 1020.03 1020.23 1020.37 1020.45 1020.48 1020.47 1020.45 1020.42 1020.41 1020.43 1020.46 1020.51 1020.55 1020.57 1020.53 1020.43 1020.25 1019.99 1019.66 1019.27 1018.84 1018.39 1017.95 1017.53 1017.13 1016.77 1016.43 1016.10 1015.77 1015.41 1015.02 1014.61 1014.16 1013.68
1017.14 1017.67 1018.15 1018.59 1018.99 1019.34 1019.66 1019.93 1020.16 1020.35 1020.50 1020.61 1020.68 1020.72 1020.75 1020.77 1020.79 1020.83 1020.89 1020.95 1021.02 1021.08 1021.10 1021.07 1020.98 1020.82 1020.59 1020.29 1019.93 1019.54 1019.13 1018.72 1018.32 1017.94 1017.57 1017.22 1016.87 1016.51 1016.13 1015.73 1015.30 1014.85 1014.37
1017.99 1018.49 1018.94 1019.32 1019.65 1019.92 1020.14 1020.32 1020.46 1020.57 1020.66 1020.73 1020.79 1020.84 1020.90 1020.96 1021.04 1021.13 1021.23 1021.33 1021.43 1021.50 1021.55 1021.54 1021.47 1021.34 1021.15 1020.90 1020.60 1020.26 1019.90 1019.53 1019.15 1018.78 1018.42 1018.05 1017.69 1017.32 1016.93 1016.53 1016.11 1015.66 1015.21
Thickness
5772 5773 5772 5770 5767 5764 5760 5757 5753 5751 5748 5745 5742 5739 5736 5735 5733 5732 5730 5729 5728 5726 5724 5722 5720 5717 5715 5714 5712 5711 5709 5708 5709 5708 5707 5708 5710 5711 5712 5713 5713 5713 5714
5765 5766 5767 5766 5764 5761 5758 5756 5752 5749 5747 5743 5741 5737 5734 5731 5729 5728 5727 5727 5725 5723 5721 5719 5716 5714 5711 5709 5708 5706 5704 5704 5704 5701 5699 5697 5700 5704 5707 5707 5708 5708 5708
5761 5761 5762 5761 5760 5758 5755 5754 5751 5747 5744 5741 5737 5733 5730 5727 5725 5723 5722 5723 5722 5721 5718 5716 5713 5711 5708 5706 5704 5703 5701 5699 5698 5699 5696 5691 5689 5693 5698 5700 5702 5702 5703
5759 5758 5758 5757 5757 5755 5753 5751 5748 5744 5742 5738 5734 5730 5726 5722 5721 5720 5718 5718 5718 5716 5714 5713 5711 5708 5705 5703 5701 5700 5698 5696 5693 5693 5693 5692 5691 5687 5687 5692 5695 5697 5697
5755 5754 5755 5754 5754 5752 5750 5747 5744 5741 5739 5736 5731 5726 5723 5720 5718 5716 5714 5713 5713 5712 5710 5709 5707 5704 5702 5699 5698 5696 5695 5693 5691 5689 5688 5687 5686 5686 5684 5683 5686 5689 5692
5751 5751 5751 5750 5748 5747 5744 5741 5738 5736 5734 5732 5728 5724 5720 5717 5714 5711 5709 5708 5708 5707 5706 5705 5703 5701 5699 5696 5695 5693 5692 5690 5688 5686 5685 5684 5682 5681 5680 5678 5680 5682 5685
5745 5744 5743 5742 5741 5739 5737 5735 5733 5730 5730 5727 5724 5721 5717 5715 5712 5708 5705 5703 5702 5701 5701 5701 5699 5697 5695 5693 5691 5689 5687 5686 5684 5683 5682 5681 5681 5680 5678 5676 5675 5676 5679
5739 5738 5737 5736 5735 5733 5731 5729 5727 5724 5723 5722 5719 5717 5715 5711 5709 5706 5703 5700 5698 5698 5697 5696 5694 5692 5691 5689 5687 5685 5683 5682 5680 5679 5678 5677 5677 5677 5676 5675 5673 5671 5673
5732 5731 5730 5730 5729 5727 5726 5724 5721 5719 5718 5716 5714 5712 5710 5708 5705 5702 5699 5697 5695 5694 5693 5691 5689 5687 5686 5684 5682 5680 5679 5678 5677 5676 5675 5673 5673 5672 5673 5673 5672 5670 5668
5725 5724 5723 5723 5722 5721 5719 5718 5716 5714 5712 5711 5709 5707 5705 5702 5700 5698 5695 5693 5692 5690 5688 5685 5683 5682 5681 5680 5678 5676 5675 5674 5673 5672 5670 5669 5669 5668 5669 5669 5669 5669 5667
5720 5718 5717 5716 5715 5714 5712 5710 5710 5708 5707 5705 5703 5700 5699 5696 5694 5692 5690 5688 5686 5685 5683 5681 5678 5677 5677 5676 5674 5673 5672 5671 5669 5668 5667 5666 5666 5665 5665 5665 5665 5664 5664
5714 5713 5711 5709 5708 5707 5706 5705 5703 5702 5701 5699 5697 5694 5692 5690 5688 5686 5684 5682 5680 5679 5677 5675 5674 5673 5673 5671 5670 5669 5668 5667 5666 5665 5664 5664 5664 5663 5663 5662 5661 5661 5661
5707 5705 5704 5703 5701 5700 5700 5700 5697 5695 5694 5693 5691 5689 5687 5685 5682 5681 5679 5677 5674 5673 5672 5670 5669 5669 5669 5668 5667 5665 5665 5664 5664 5663 5662 5662 5661 5660 5660 5659 5658 5658 5658
5700 5699 5697 5696 5695 5694 5694 5693 5691 5690 5689 5687 5685 5683 5681 5679 5677 5676 5675 5672 5670 5669 5667 5667 5666 5666 5666 5665 5664 5663 5662 5662 5661 5661 5661 5660 5660 5659 5658 5656 5655 5654 5653
5693 5693 5692 5690 5690 5689 5687 5686 5685 5684 5683 5681 5679 5678 5676 5675 5673 5672 5670 5669 5667 5666 5665 5664 5663 5663 5662 5662 5661 5660 5659 5659 5658 5659 5658 5658 5658 5658 5656 5655 5653 5651 5650
5689 5688 5688 5686 5685 5684 5682 5680 5679 5678 5676 5675 5674 5673 5671 5669 5668 5667 5666 5665 5664 5663 5662 5661 5660 5659 5659 5658 5657 5657 5656 5656 5655 5655 5655 5655 5655 5654 5654 5653 5652 5651 5649
5684 5683 5682 5681 5680 5679 5677 5674 5673 5672 5670 5669 5668 5667 5666 5664 5663 5662 5661 5660 5659 5659 5658 5658 5657 5656 5655 5654 5654 5653 5652 5652 5652 5652 5651 5651 5652 5651 5651 5650 5649 5648 5647
5679 5678 5677 5675 5674 5672 5670 5669 5667 5666 5665 5664 5663 5662 5660 5659 5657 5656 5655 5655 5654 5653 5653 5653 5652 5652 5651 5651 5650 5649 5648 5648 5648 5648 5648 5647 5647 5647 5647 5646 5645 5644 5643
5675 5673 5672 5671 5669 5666 5665 5663 5661 5661 5660 5659 5658 5657 5656 5654 5652 5651 5650 5650 5649 5649 5649 5648 5648 5647 5647 5646 5645 5645 5644 5645 5645 5645 5645 5645 5644 5643 5642 5642 5641 5640 5640
5668 5667 5666 5664 5663 5661 5659 5657 5656 5655 5655 5655 5654 5653 5651 5649 5647 5646 5645 5644 5644 5644 5644 5644 5643 5642 5642 5642 5641 5641 5641 5640 5641 5641 5641 5641 5640 5639 5638 5638 5637 5636 5635
5662 5661 5660 5658 5657 5655 5653 5651 5650 5650 5650 5650 5649 5647 5646 5644 5643 5641 5640 5639 5639 5639 5638 5639 5638 5638 5637 5637 5637 5636 5636 5636 5636 5637 5637 5637 5636 5635 5635 5634 5633 5632 5631
5655 5654 5653 5652 5650 5649 5647 5646 5645 5646 5645 5644 5642 5641 5640 5639 5638 5636 5635 5634 5633 5633 5633 5633 5634 5634 5633 5633 5633 5632 5632 5632 5632 5632 5632 5633 5632 5631 5630 5629 5629 5628 5626
5646 5646 5645 5644 5643 5642 5641 5640 5641 5640 5639 5637 5636 5635 5634 5633 5632 5631 5629 5628 5628 5628 5628 5628 5628 5629 5629 5629 5628 5628 5627 5627 5627 5627 5628 5628 5628 5627 5626 5625 5624 5623 5622
5638 5638 5636 5636 5635 5635 5635 5635 5635 5634 5633 5632 5630 5629 5628 5627 5626 5625 5625 5624 5623 5623 5623 5623 5623 5624 5624 5624 5624 5623 5623 5622 5622 5622 5622 5622 5622 5621 5621 5620 5618 5617 5617
5630 5630 5629 5629 5628 5628 5627 5628 5628 5627 5626 5625 5624 5623 5623 5621 5620 5620 5620 5620 5620 5620 5619 5620 5620 5619 5620 5621 5619 5618 5618 5617 5617 5616 5617 5617 5617 5616 5616 5615 5613 5612 5611
5623 5622 5622 5622 5621 5620 5620 5621 5621 5621 5619 5618 5618 5617 5616 5615 5615 5615 5615 5616 5616 5617 5617 5617 5616 5616 5616 5616 5614 5613 5613 5612 5611 5611 5612 5612 5612 5612 5611 5610 5609 5607 5606